Regional Weather Roundup
Issued by NWS

Home | Current Version | Previous Version | Text Only | Print | Product List | Glossary On
Versions: 1 2 3 4 5 6 7 8 9 10 11 12 13 14 15 16 17 18 19 20 21 22 23 24 25 26 27 28 29 30 31 32 33 34 35 36 37 38 39 40 41 42 43 44 45 46 47 48 49 50
000
ASUS44 KFWD 281115
RWRTX
NORTH TEXAS HOURLY WEATHER ROUNDUP
NATIONAL WEATHER SERVICE FORT WORTH TX
600 AM CDT SAT MAR 28 2015

NOTE: "FAIR" INDICATES FEW OR NO CLOUDS BELOW 12,000 FEET WITH NO
SIGNIFICANT WEATHER AND/OR OBSTRUCTIONS TO VISIBILITY.

TXZ118-119-281200-
DALLAS/FORT WORTH METROPLEX

CITY           SKY/WX    TMP DP  RH WIND       PRES   REMARKS
DFW AIRPORT    PTCLDY    47  38  71 SE6       30.08S
DALLAS LOVE    PTCLDY    49  39  68 SE7       30.09F
FTW MEACHAM    CLEAR     48  39  71 SE6       30.08R
DAL-EXECUTIVE  CLEAR     44  39  82 SE5       30.09S
FTW-ALLIANCE   PTCLDY    45  39  79 SE3       30.08R
FTW-SPINKS     CLEAR     47  39  72 S3        30.10S
ARLINGTON      CLEAR     47  37  68 CALM      30.09S
ADDISON        CLEAR     50  37  62 SE10      30.09F
MESQUITE       CLEAR     44  39  84 SE3       30.10S
LANCASTER      CLEAR     42  37  83 CALM      30.11R
$$

TXZ091>094-102>105-117-120-121-131>134-281200-
NORTH CENTRAL TEXAS

CITY           SKY/WX    TMP DP  RH WIND       PRES   REMARKS
SHRMAN/DENISON CLEAR     48  40  75 S8        30.08R
GAINESVILLE    CLEAR     44  40  86 S8        30.09S WCI  39
BOWIE          CLEAR     45  40  83 SE8       30.05S
BRIDGEPORT     CLEAR     44  41  89 CALM      30.08F
DECATUR        CLEAR     45  39  81 SE5       30.07S
DENTON         CLEAR     43  40  89 S6        30.08S WCI  39
MCKINNEY       CLEAR     45  40  82 S5        30.08F
GREENVILLE     CLEAR     41  37  87 SE3       30.09F
ROCKWALL       CLEAR     47  38  71 SE7       30.07F
TERRELL        CLEAR     45  38  76 SE3       30.10F
WAXAHACHIE     CLEAR     45  40  83 SE5       30.11R
CLEBURNE       CLEAR     48  43  81 S6        30.11S
GRANBURY         N/A     50  42  72 S5        30.10S
$$

TXZ083>090-098>101-113>116-127>130-139>142-154-155-281200-
WESTERN NORTH TEXAS

CITY           SKY/WX    TMP DP  RH WIND       PRES   REMARKS
WICHITA FALLS  CLEAR     44  39  82 SE8       30.03S WCI  39
WF-KICKAPOO    CLEAR     47  42  83 S5        30.05S
VERNON         FAIR      44  36  74 CALM      30.04S
ABILENE        CLEAR     55  37  50 SE12      30.07S
ABILENE-DYESS  CLEAR     53  38  56 S10       30.04F
BRECKENRIDGE   CLEAR     53  41  63 S10       30.06S
GRAHAM         CLEAR     49  42  75 S5        30.05S
MINERAL WELLS  CLEAR     47  40  76 S6        30.07S
STEPHENVILLE   CLEAR     47  41  79 S8        30.12F
COMANCHE       CLEAR     48  43  84 S8        30.10F
BROWNWOOD      CLEAR     41  39  93 CALM      30.11S
COLEMAN        CLEAR     45  40  84 CALM      30.10S
BRADY          CLEAR     55  36  47 S7        30.09S
$$

TXZ143>147-156>162-174-175-281200-
CENTRAL TEXAS

CITY           SKY/WX    TMP DP  RH WIND       PRES   REMARKS
WACO           CLEAR     46  40  79 S8        30.11F
WACO-MCGREGOR  CLEAR     46  37  71 SW3       30.13S
HILLSBORO      CLEAR     45  38  77 S5        30.11R
CORSICANA      CLEAR     48  41  76 S6        30.12S
MEXIA          CLEAR     47  39  75 S7        30.11S
HEARNE         CLEAR     47  43  84 CALM      30.15R
CAMERON        CLEAR     51  43  75 SE5       30.13S
TEMPLE         CLEAR     46  37  71 CALM      30.11S
KILLEEN        CLEAR     52  42  70 S7        30.11S HAZE
KILLEEN-SKYLRK CLEAR     50  37  62 MISG      30.11S
FORT HOOD      CLEAR     50  42  74 SE6       30.11S
GATESVILLE     CLEAR     46  41  81 CALM      30.14S
HAMILTON       CLEAR     46  41  81 S14       30.12F
$$

TXZ095>097-106>112-122>126-135>138-148>153-164>167-281200-
EAST TEXAS

CITY           SKY/WX    TMP DP  RH WIND       PRES   REMARKS
SULPHUR SPRNGS CLEAR     47  35  63 SE5       30.12S
MOUNT PLEASANT CLEAR     41  40  95 NE5       30.13R WCI  38
GILMER         CLEAR     44  38  80 CALM      30.11S
MINEOLA        CLEAR     46  39  76 SE7       30.11F
TYLER          CLEAR     47  36  65 E8        30.11F
LONGVIEW       CLEAR     45  39  79 SE8       30.11F
MARSHALL       CLEAR     42  39  90 S3        30.14F
ATHENS         CLEAR     43  39  87 CALM      30.11R
PALESTINE      CLEAR     49  38  66 SE5       30.12S
JACKSONVILLE   CLEAR     49  37  63 E5        30.13F
HENDERSON      CLEAR     41  39  93 CALM      30.14S
NACOGDOCHES    MOCLDY    39  37  93 CALM      30.14S
LUFKIN         CLEAR     49  40  71 S6        30.14S
$$

SUPPLEMENTAL OBSERVATIONS (CENTRAL)

CITY           SKY/WX    TMP DP  RH WIND       PRES   REMARKS
LAKE TEXOMA      N/A     46  36  66 SE7         N/A
CADDO GRASSLND   N/A     46  36  66 S6          N/A
PAT MAYSE LAKE   N/A     45  34  65 E6          N/A
GREENVILLE       N/A     45  34  65 SE3         N/A
CEDAR HILL       N/A     48  36  61 S2          N/A
ATHENS           N/A     48  37  66 E6          N/A
LAKE LIMESTONE   N/A     48  37  66 SE2         N/A
MCGREGOR         N/A     45  39  81 W2          N/A
TEMPLE           N/A     52  41  66 E6          N/A
$$

SUPPLEMENTAL OBSERVATIONS (WEST)

CITY           SKY/WX    TMP DP  RH WIND       PRES   REMARKS
MILLERS CREEK    N/A     52  41  66 S10         N/A
POSSUM KINGDOM   N/A     52  39  62 S7G15       N/A
LBJ GRASSLAND    N/A     48  37  66 SE8         N/A
GRANBURY         N/A     48  39  71 S6          N/A
COMANCHE         N/A     48  39  71 S9          N/A
HAMBY            N/A     52  39  62 SE6         N/A
IVIE RESERVOIR   N/A     57  32  38 E1          N/A
COLORADO BEND    N/A     48  39  71 E2          N/A
$$

SUPPLEMENTAL OBSERVATIONS (EAST)

CITY           SKY/WX    TMP DP  RH WIND       PRES   REMARKS
CLARKSVILLE      N/A     43  39  87 E5          N/A
TEXARKANA        N/A     36  34  93 CALM        N/A
LINDEN           N/A     37  34  87 CALM        N/A
CADDO LAKE       N/A     39  37  93 NE1         N/A
GILMER           N/A     43  39  87 CALM        N/A
HENDERSON        N/A     41  37  87 CALM        N/A
LUFKIN           N/A     45  39  81 MISG        N/A
N SABINE NF      N/A     41  37  87 MISG        N/A
S SABINE NF      N/A     46  43  87 CALM        N/A
$$

SUPPLEMENTAL OBSERVATIONS ARE A COLLECTION OF AUTOMATED INSTRUMENTS
THAT ARE MAINTAINED BY A VARIETY OF FEDERAL AND STATE AGENCIES.
CERTAIN ELEMENTS...SUCH AS HUMIDITY VALUES AND SUSTAINED WIND
SPEEDS...MAY BE APPROXIMATED.



USA.gov is the U.S. government's official web portal to all federal, state and local government web resources and services.